STARLINK-5127 (54010 NORAD) Tracking and Keplerian Element Data

This shows tracking and keplerian element data for the satellite.

Feedback or suggestion? Click here.




ElementValue
Catalog54010
NameSTARLINK-5127
Epoch Orbit130
Epoch Day324.91667824
Epoch Year2022
RAAN223.899
Inclination53.2156
Eccentricity0.0001406
Argument of Perigee46.5676
Mean Anonmoly294.9173
Mean Motion15.73200286
Decay Rate0.00022166
L11 54010U 22125AY 22324.91667824 .00022166 00000+0 16193-3 0 9997
L22 54010 53.2156 223.8990 0001406 46.5676 294.9173 15.73200286 1305



Live tracking and technical data element details for STARLINK-5127 (NORAD 54010). STARLINK-5127 can be tracked NOW for your location showing map with azimuth and elevation plus other details from your city location.







IsCatalogInMostPopularTable: catalog: 54010, numindb: 3
Update: records affected: 1



GetName: 54010 STARLINK-5127

Hit Count: updated at: Fri, 09 Dec 2022 19:31:37 GMT